Glendale Luke AFB, AZ

6:08 AM MST on December 09, 2019 (GMT -0700)
Luke Air Force Base

Weather History for KLUF - August, 2019

Change the Weather History Date:

Thursday, August 1, 2019

  Actual Average Record
Temperature  
Mean Temperature 92 °F -  
Max Temperature 103 °F 108 °F 118 °F (1972)
Min Temperature 81 °F 77 °F 63 °F (1950)
Cooling Degree Days 27    
Growing Degree Days 42 (Base 50)    
Moisture  
Dew Point 65 °F    
Average Humidity 40    
Maximum Humidity 65    
Minimum Humidity 24    
Precipitation  
Precipitation 0.00 in - - ()
Sea Level Pressure  
Sea Level Pressure 29.84 in    
Wind  
Wind Speed 4 mph (South)    
Max Wind Speed 9 mph    
Max Gust Speed -    
Visibility 10 miles    
Events      
Averages and records for this station are not official NWS values.
T = Trace of Precipitation, MM = Missing Value Source: NWS Daily Summary

Daily Weather History Graph

Daily Weather History Graph

Search for Another Location

Airport or City:

Astronomy

Aug. 01, 2019 Rise Set
Actual Time 5:41 AM MST 7:29 PM MST
Civil Twilight 5:14 AM MST 7:56 PM MST
Nautical Twilight 4:41 AM MST 8:29 PM MST
Astronomical Twilight 4:06 AM MST 9:04 PM MST
Moon 6:11 AM MST (8/1) 8:20 PM MST (8/1)
Length of Visible Light 14h 42m
Length of Day
13h 47m
New Moon, 1% of the Moon is Illuminated
Aug 1
New Moon
Aug 7
First Quarter
Aug 15
Full
Aug 23
Last Quarter
Aug 30
New

Hourly Weather History & Observations

Time (MST) Temp. Heat Index Dew Point Humidity Pressure Visibility Wind Dir Wind Speed Gust Speed Precip Events Conditions
12:58 AM 86.0 °F 90.7 °F 70.0 °F 59% 29.86 in 10.0 mi SE 3.5 mph - N/A   Clear
1:58 AM 84.7 °F 89.1 °F 70.2 °F 61% 29.87 in 10.0 mi SE 3.5 mph - N/A   Clear
2:58 AM 85.1 °F 88.2 °F 68.0 °F 56% 29.87 in 10.0 mi SW 3.5 mph - N/A   Clear
3:58 AM 84.4 °F 87.6 °F 68.0 °F 58% 29.87 in 10.0 mi Calm Calm - N/A   Clear
4:58 AM 82.6 °F 85.7 °F 68.2 °F 62% 29.88 in 10.0 mi Calm Calm - N/A   Clear
5:58 AM 81.9 °F 85.2 °F 69.3 °F 65% 29.90 in 10.0 mi Calm Calm - N/A   Clear
6:58 AM 85.5 °F 90.1 °F 70.0 °F 60% 29.91 in 10.0 mi Calm Calm - N/A   Clear
7:58 AM 88.2 °F 92.9 °F 69.8 °F 54% 29.93 in 10.0 mi NE 5.8 mph - N/A   Clear
8:58 AM 91.2 °F 96.0 °F 69.3 °F 48% 29.93 in 10.0 mi ESE 5.8 mph - N/A   Clear
9:58 AM 93.4 °F 98.6 °F 69.4 °F 45% 29.93 in 10.0 mi SE 5.8 mph - N/A   Clear
10:58 AM 95.9 °F 99.6 °F 66.2 °F 38% 29.91 in 10.0 mi SE 3.5 mph - N/A   Clear
11:58 AM 97.9 °F 100.9 °F 65.5 °F 34% 29.89 in 10.0 mi SSE 3.5 mph - N/A   Clear
12:42 PM 100.4 °F 103.6 °F 64.4 °F 31% 29.87 in 10.0 mi SE 8.1 mph - N/A   Light Drizzle
12:51 PM 100.4 °F 103.6 °F 64.4 °F 31% 29.87 in 10.0 mi SE 4.6 mph - N/A   Partly Cloudy
12:58 PM 100.2 °F 102.7 °F 64.0 °F 30% 29.87 in 10.0 mi North 4.6 mph - 0.00 in   Partly Cloudy
1:58 PM 101.3 °F 104.0 °F 63.1 °F 29% 29.84 in 10.0 mi NNE 6.9 mph - N/A   Partly Cloudy
2:58 PM 101.5 °F 103.6 °F 62.2 °F 28% 29.81 in 10.0 mi Calm Calm - N/A   Partly Cloudy
3:58 PM 102.4 °F 103.3 °F 60.8 °F 25% 29.78 in 10.0 mi NNE 6.9 mph - N/A   Scattered Clouds
4:58 PM 103.6 °F 104.7 °F 60.8 °F 24% 29.75 in 10.0 mi Calm Calm - N/A   Clear
5:58 PM 103.5 °F 105.1 °F 61.7 °F 25% 29.75 in 10.0 mi WSW 8.1 mph - N/A   Clear
6:58 PM 102.2 °F 104.2 °F 62.8 °F 27% 29.75 in 10.0 mi West 9.2 mph - N/A   Clear
7:58 PM 101.1 °F 102.4 °F 61.9 °F 27% 29.76 in 10.0 mi WSW 6.9 mph - N/A   Clear
8:58 PM 100.0 °F 101.8 °F 62.1 °F 29% 29.78 in 10.0 mi SW 3.5 mph - N/A   Clear
9:58 PM 97.9 °F 99.8 °F 63.0 °F 32% 29.79 in 10.0 mi West 3.5 mph - N/A   Clear
10:58 PM 96.6 °F 98.2 °F 62.8 °F 33% 29.78 in 10.0 mi WNW 3.5 mph - N/A   Clear
11:58 PM 95.7 °F 97.7 °F 63.7 °F 35% 29.78 in 10.0 mi SW 3.5 mph - N/A   Clear